| time (UTC) | temp F | wind direction | speed MPH | gust MPH | rain 1hr in | rain 24hr in | rain mn in | humidity % | barometer mb |
| 20260902024003 | 80 | 0 | 0.0 | 0.0 | 0.00 | 0.08 | 0.08 | 59 | 1005.9 |
| 20260902023002 | 80 | 0 | 0.0 | 0.0 | 0.00 | 0.08 | 0.08 | 59 | 996.9 |
| 20260902022003 | 80 | 0 | 0.0 | 0.0 | 0.00 | 0.08 | 0.08 | 59 | 1005.1 |
| 20260902021003 | 80 | 0 | 0.0 | 0.0 | 0.00 | 0.08 | 0.08 | 59 | 1005.2 |
| 20260902015003 | 80 | 0 | 0.0 | 0.0 | 0.00 | 0.08 | 0.08 | 59 | 1005.8 |
| 20260902014002 | 80 | 0 | 0.0 | 0.0 | 0.00 | 0.08 | 0.08 | 59 | 996.7 |
| 20260902013003 | 80 | 0 | 0.0 | 0.0 | 0.00 | 0.08 | 0.08 | 59 | 997.2 |
| 20260902012002 | 80 | 0 | 0.0 | 0.0 | 0.00 | 0.08 | 0.08 | 59 | 997.3 |
| 20260902011003 | 80 | 0 | 0.0 | 0.0 | 0.00 | 0.08 | 0.08 | 59 | 997.6 |
| 20260902010003 | 80 | 0 | 0.0 | 0.0 | 0.00 | 0.08 | 0.08 | 59 | 998.0 |
| 20260902005002 | 80 | 0 | 0.0 | 0.0 | 0.00 | 0.08 | 0.08 | 59 | 998.3 |
| 20260902004002 | 80 | 0 | 0.0 | 0.0 | 0.00 | 0.08 | 0.08 | 59 | 998.8 |
| 20260902002004 | 80 | 0 | 0.0 | 0.0 | 0.00 | 0.08 | 0.08 | 59 | 999.4 |
| 20260902001003 | 80 | 0 | 0.0 | 0.0 | 0.00 | 0.08 | 0.08 | 59 | 999.9 |
| 20260902000003 | 80 | 0 | 0.0 | 0.0 | 0.00 | 0.08 | 0.08 | 59 | 1000.5 |
| 20260901235002 | 80 | 0 | 0.0 | 0.0 | 0.00 | 0.08 | 0.08 | 59 | 1001.3 |
| 20260901234002 | 80 | 0 | 0.0 | 0.0 | 0.00 | 0.08 | 0.08 | 58 | 1002.1 |
| 20260901233003 | 90 | 314 | 6.0 | 7.0 | 0.00 | 0.08 | 0.08 | 43 | 1002.9 |
| 20260901232003 | 90 | 314 | 6.0 | 7.0 | 0.00 | 0.08 | 0.08 | 43 | 1001.9 |
| 20260901231002 | 90 | 314 | 6.0 | 7.0 | 0.00 | 0.08 | 0.08 | 43 | 1001.9 |
| 20260901230003 | 90 | 314 | 6.0 | 7.0 | 0.00 | 0.08 | 0.08 | 43 | 1002.5 |
| 20260901225002 | 90 | 314 | 6.0 | 7.0 | 0.00 | 0.08 | 0.08 | 43 | 1002.3 |
| 20260901224003 | 90 | 314 | 6.0 | 7.0 | 0.00 | 0.08 | 0.08 | 43 | 1002.2 |
| 20260901223003 | 90 | 314 | 6.0 | 7.0 | 0.00 | 0.08 | 0.08 | 43 | 1002.6 |
| 20260901220002 | 90 | 314 | 6.0 | 7.0 | 0.00 | 0.08 | 0.08 | 43 | 1003.6 |
| 20260901215003 | 90 | 314 | 6.0 | 7.0 | 0.00 | 0.08 | 0.08 | 43 | 1004.3 |
| 20260901214002 | 90 | 314 | 6.0 | 7.0 | 0.00 | 0.08 | 0.08 | 43 | 1005.1 |
| 20260901213003 | 90 | 314 | 6.0 | 7.0 | 0.00 | 0.08 | 0.08 | 43 | 1005.4 |
| 20260901212003 | 90 | 314 | 6.0 | 7.0 | 0.00 | 0.08 | 0.08 | 43 | 1005.7 |
| 20260901211003 | 90 | 314 | 6.0 | 7.0 | 0.00 | 0.09 | 0.08 | 43 | 1006.3 |
| 20260901210003 | 90 | 314 | 6.0 | 7.0 | 0.00 | 0.11 | 0.08 | 43 | 1006.6 |
| 20260901205002 | 90 | 314 | 6.0 | 7.0 | 0.00 | 0.11 | 0.08 | 43 | 1005.8 |
| 20260901204003 | 90 | 314 | 6.0 | 7.0 | 0.00 | 0.13 | 0.08 | 43 | 1006.8 |
| 20260901203003 | 90 | 314 | 6.0 | 7.0 | 0.00 | 0.15 | 0.08 | 43 | 1006.4 |
| 20260901202003 | 90 | 314 | 6.0 | 7.0 | 0.00 | 0.17 | 0.08 | 43 | 1007.4 |
| 20260901201003 | 90 | 314 | 6.0 | 7.0 | 0.00 | 0.18 | 0.08 | 43 | 1007.4 |
| 20260901200003 | 90 | 314 | 6.0 | 7.0 | 0.00 | 0.18 | 0.08 | 43 | 1007.8 |
| 20260901195003 | 90 | 314 | 6.0 | 8.0 | 0.00 | 0.18 | 0.08 | 43 | 1008.0 |
| 20260901194003 | 91 | 314 | 6.0 | 12.0 | 0.00 | 0.18 | 0.08 | 44 | 1007.8 |
| 20260901193002 | 90 | 314 | 9.0 | 14.0 | 0.00 | 0.18 | 0.08 | 42 | 1008.2 |
| 20260901191003 | 91 | 338 | 5.0 | 8.0 | 0.00 | 0.18 | 0.08 | 44 | 1007.8 |
| 20260901185003 | 90 | 314 | 7.0 | 11.0 | 0.00 | 0.18 | 0.08 | 43 | 1007.6 |
| 20260901184002 | 89 | 295 | 9.0 | 14.0 | 0.00 | 0.18 | 0.08 | 45 | 1006.8 |
| 20260901183003 | 90 | 230 | 7.0 | 12.0 | 0.00 | 0.18 | 0.08 | 44 | 1007.5 |
| 20260901182004 | 90 | 230 | 5.0 | 7.0 | 0.00 | 0.18 | 0.08 | 45 | 1006.7 |
| 20260901181003 | 90 | 243 | 4.0 | 6.0 | 0.00 | 0.18 | 0.08 | 44 | 1007.3 |
| 20260901180003 | 90 | 265 | 4.0 | 6.0 | 0.00 | 0.18 | 0.08 | 46 | 1006.4 |
| 20260901175003 | 90 | 262 | 4.0 | 8.0 | 0.00 | 0.18 | 0.08 | 46 | 1006.9 |
| 20260901174003 | 90 | 357 | 4.0 | 8.0 | 0.00 | 0.18 | 0.08 | 44 | 1006.3 |
| 20260901173003 | 90 | 1 | 4.0 | 6.0 | 0.00 | 0.18 | 0.08 | 45 | 1006.6 |
| 20260901172002 | 89 | 1 | 4.0 | 7.0 | 0.00 | 0.18 | 0.08 | 48 | 1006.3 |
| 20260901171003 | 89 | 344 | 4.0 | 7.0 | 0.00 | 0.18 | 0.08 | 47 | 1006.6 |
| 20260901170003 | 88 | 276 | 4.0 | 6.0 | 0.00 | 0.18 | 0.08 | 47 | 1006.8 |
| 20260901165004 | 88 | 324 | 3.0 | 4.0 | 0.00 | 0.18 | 0.08 | 50 | 1006.6 |
| 20260901164003 | 87 | 135 | 3.0 | 4.0 | 0.00 | 0.18 | 0.08 | 50 | 1007.1 |
| 20260901163003 | 87 | 234 | 4.0 | 6.0 | 0.00 | 0.18 | 0.08 | 49 | 1007.1 |
| 20260901161003 | 86 | 225 | 3.0 | 4.0 | 0.00 | 0.18 | 0.08 | 51 | 1000.7 |
| 20260901160003 | 86 | 225 | 4.0 | 4.0 | 0.00 | 0.18 | 0.08 | 52 | 1001.3 |
| 20260901155003 | 74 | 314 | 2.0 | 2.0 | 0.00 | 0.18 | 0.08 | 85 | 1001.0 |
| 20260901153003 | 74 | 314 | 2.0 | 2.0 | 0.00 | 0.18 | 0.08 | 85 | 1000.3 |
| 20260901152003 | 74 | 314 | 2.0 | 2.0 | 0.00 | 0.18 | 0.08 | 85 | 1009.3 |
| 20260901151003 | 74 | 314 | 2.0 | 2.0 | 0.00 | 0.18 | 0.08 | 85 | 1009.1 |
| 20260901150003 | 74 | 314 | 2.0 | 2.0 | 0.00 | 0.18 | 0.08 | 85 | 1008.9 |
| 20260901145003 | 74 | 314 | 2.0 | 2.0 | 0.00 | 0.18 | 0.08 | 85 | 1008.5 |
| 20260901144003 | 74 | 314 | 2.0 | 2.0 | 0.00 | 0.18 | 0.08 | 85 | 1008.3 |
| 20260901143003 | 74 | 314 | 2.0 | 2.0 | 0.00 | 0.18 | 0.08 | 85 | 1008.0 |
| 20260901142003 | 74 | 314 | 2.0 | 2.0 | 0.00 | 0.18 | 0.08 | 85 | 1007.8 |
| 20260901141003 | 74 | 314 | 2.0 | 2.0 | 0.00 | 0.18 | 0.08 | 85 | 1007.9 |
| 20260901140004 | 74 | 314 | 2.0 | 2.0 | 0.00 | 0.18 | 0.08 | 85 | 1007.6 |
| 20260901135003 | 74 | 314 | 2.0 | 2.0 | 0.00 | 0.18 | 0.08 | 85 | 1007.3 |
| 20260901134004 | 74 | 314 | 2.0 | 2.0 | 0.00 | 0.18 | 0.08 | 85 | 1007.2 |
| 20260901133004 | 74 | 314 | 2.0 | 2.0 | 0.00 | 0.18 | 0.08 | 85 | 1007.0 |
| 20260901132003 | 74 | 314 | 2.0 | 4.0 | 0.00 | 0.18 | 0.08 | 85 | 1006.8 |
| 20260901131004 | 73 | 314 | 3.0 | 4.0 | 0.00 | 0.18 | 0.08 | 87 | 1006.7 |
| 20260901130003 | 72 | 314 | 2.0 | 3.0 | 0.00 | 0.18 | 0.08 | 88 | 1006.4 |
| 20260901125003 | 70 | 314 | 2.0 | 2.0 | 0.00 | 0.18 | 0.08 | 89 | 1006.3 |
| 20260901123004 | 70 | 314 | 0.0 | 1.0 | 0.00 | 0.18 | 0.08 | 90 | 1005.9 |
| 20260901122003 | 69 | 0 | 0.0 | 0.0 | 0.00 | 0.18 | 0.08 | 89 | 1005.7 |
| 20260901121003 | 69 | 0 | 0.0 | 0.0 | 0.00 | 0.18 | 0.08 | 89 | 1005.5 |
| 20260901120004 | 69 | 314 | 1.0 | 2.0 | 0.08 | 0.18 | 0.08 | 89 | 1005.4 |
| 20260901115003 | 69 | 314 | 0.0 | 2.0 | 0.08 | 0.18 | 0.08 | 89 | 1005.2 |
| 20260901113004 | 68 | 0 | 0.0 | 0.0 | 0.08 | 0.18 | 0.08 | 89 | 1004.7 |
| 20260901112003 | 68 | 0 | 0.0 | 0.0 | 0.08 | 0.18 | 0.08 | 89 | 1004.4 |
| 20260901111003 | 72 | 1 | 1.0 | 1.0 | 0.00 | 0.09 | 0.00 | 74 | 1004.1 |
| 20260901110004 | 72 | 1 | 1.0 | 1.0 | 0.00 | 0.09 | 0.00 | 74 | 1003.8 |
| 20260901105003 | 72 | 1 | 1.0 | 1.0 | 0.00 | 0.09 | 0.00 | 74 | 1003.3 |
| 20260901104003 | 72 | 1 | 1.0 | 1.0 | 0.00 | 0.09 | 0.00 | 74 | 1003.0 |
| 20260901103004 | 72 | 1 | 1.0 | 1.0 | 0.00 | 0.09 | 0.00 | 74 | 1002.4 |
| 20260901101003 | 72 | 1 | 1.0 | 1.0 | 0.00 | 0.09 | 0.00 | 74 | 1002.9 |
| 20260901095003 | 72 | 1 | 1.0 | 1.0 | 0.00 | 0.09 | 0.00 | 74 | 1002.9 |
| 20260901094004 | 72 | 1 | 1.0 | 1.0 | 0.00 | 0.09 | 0.00 | 74 | 1002.9 |
| 20260901093002 | 72 | 1 | 1.0 | 1.0 | 0.00 | 0.09 | 0.00 | 74 | 1002.3 |
| 20260901092002 | 72 | 1 | 1.0 | 1.0 | 0.00 | 0.09 | 0.00 | 74 | 1002.5 |
| 20260901091002 | 72 | 1 | 1.0 | 1.0 | 0.00 | 0.09 | 0.00 | 74 | 1002.5 |
| 20260901090002 | 72 | 1 | 1.0 | 1.0 | 0.00 | 0.09 | 0.00 | 74 | 1002.1 |
| 20260901085003 | 72 | 1 | 1.0 | 1.0 | 0.00 | 0.09 | 0.00 | 74 | 1002.3 |
| 20260901084002 | 72 | 1 | 1.0 | 1.0 | 0.00 | 0.09 | 0.00 | 74 | 1002.3 |
| 20260901083002 | 72 | 1 | 1.0 | 1.0 | 0.00 | 0.09 | 0.00 | 74 | 1002.1 |
| 20260901082002 | 72 | 1 | 1.0 | 1.0 | 0.00 | 0.09 | 0.00 | 74 | 1002.6 |
| 20260901081002 | 72 | 1 | 1.0 | 1.0 | 0.00 | 0.09 | 0.00 | 74 | 1002.0 |
| 20260901080003 | 72 | 1 | 1.0 | 1.0 | 0.00 | 0.09 | 0.00 | 74 | 1002.0 |
| 20260901075002 | 72 | 1 | 1.0 | 1.0 | 0.00 | 0.09 | 0.00 | 74 | 1002.1 |
| 20260901074002 | 72 | 1 | 1.0 | 1.0 | 0.00 | 0.09 | 0.00 | 74 | 1001.7 |
| 20260901072002 | 72 | 1 | 1.0 | 1.0 | 0.00 | 0.09 | 0.00 | 74 | 1001.8 |
| 20260901071002 | 72 | 1 | 1.0 | 1.0 | 0.00 | 0.09 | 0.00 | 74 | 1001.8 |
| 20260901070002 | 72 | 1 | 1.0 | 1.0 | 0.00 | 0.09 | 0.00 | 74 | 1001.7 |
| 20260901065003 | 72 | 1 | 1.0 | 1.0 | 0.00 | 0.09 | 0.00 | 74 | 1001.5 |
| 20260901063003 | 72 | 1 | 1.0 | 1.0 | 0.00 | 0.09 | 0.00 | 74 | 1001.3 |
| 20260901061002 | 72 | 1 | 1.0 | 1.0 | 0.00 | 0.09 | 0.00 | 74 | 1001.3 |
| 20260901060002 | 72 | 1 | 1.0 | 1.0 | 0.00 | 0.09 | 0.00 | 74 | 1001.0 |
| 20260901055002 | 72 | 1 | 1.0 | 1.0 | 0.00 | 0.09 | 0.00 | 74 | 1001.4 |
| 20260901053002 | 72 | 1 | 1.0 | 1.0 | 0.00 | 0.09 | 0.00 | 74 | 1001.4 |
| 20260901052003 | 72 | 1 | 1.0 | 1.0 | 0.00 | 0.09 | 0.00 | 74 | 1000.5 |
| 20260901051002 | 72 | 1 | 1.0 | 1.0 | 0.00 | 0.09 | 0.00 | 74 | 1000.6 |
| 20260901050003 | 72 | 1 | 1.0 | 1.0 | 0.00 | 0.09 | 0.00 | 74 | 1000.4 |
| 20260901045003 | 72 | 1 | 1.0 | 1.0 | 0.00 | 0.09 | 0.00 | 74 | 1000.2 |
| 20260901043002 | 72 | 1 | 1.0 | 1.0 | 0.00 | 0.09 | 0.00 | 74 | 999.9 |
| 20260901042003 | 72 | 1 | 1.0 | 1.0 | 0.00 | 0.09 | 0.00 | 74 | 999.8 |
| 20260901041002 | 72 | 1 | 1.0 | 1.0 | 0.00 | 0.09 | 0.00 | 74 | 999.1 |
| 20260901040003 | 72 | 1 | 1.0 | 1.0 | 0.00 | 0.09 | 0.00 | 74 | 999.2 |
| 20260901035003 | 72 | 1 | 1.0 | 1.0 | 0.00 | 0.09 | 0.09 | 74 | 998.6 |
| 20260901034003 | 72 | 1 | 1.0 | 1.0 | 0.00 | 0.09 | 0.09 | 74 | 998.8 |
| 20260901030002 | 72 | 1 | 1.0 | 1.0 | 0.00 | 0.09 | 0.09 | 74 | 997.6 |
| 20260901025002 | 72 | 1 | 1.0 | 1.0 | 0.00 | 0.09 | 0.09 | 74 | 997.8 |